Snowfall_Accumulation
0.0 0.0 0.0 0.0 0.0 0.0 0.0 0.0 0.0 0.0 0.0 0.0 0.0 0.0 0.0 0.0 0.0 0.0 0.0 0.0 0.0 0.0 0.0 0.0 0.0 0.0 0.0 0.0 0.0 0.0 0.0 0.0 0.0 0.0 0.0 0.0 0.0 0.0 0.0 0.0 0.0 0.0 0.0 0.0
0.0 0.2 0.0 0.0 0.0 0.0 0.0 0.2 0.0 0.0 0.0 0.0 0.0 0.0 0.0 0.0 0.0 0.0 0.0 0.0 0.0 0.0 0.0 0.0 0.0 0.0 0.0 0.0 0.0 0.0 0.0 0.0 0.0 0.0 0.0 0.0 0.0 0.0 0.0 0.0 0.0 0.0 0.0 0.0
0.3 0.0 0.0 0.0 0.0 0.0 0.0 0.0 0.0 0.0 0.0 0.0 0.0 0.0 0.0 0.0 0.0 0.0 0.0 0.0 0.0 0.0 0.0 0.0 0.0 0.0 0.0 0.0 0.0 0.0 0.0 0.0 0.0 0.0 0.0 0.0 0.0 0.0 0.0 0.0 0.0 0.0 0.0 0.0
0.7 0.0 0.2 0.0 0.0 0.0 0.4 0.0 0.0 0.1 0.6 0.9 0.0 0.3 0.0 0.0 0.0 0.0 0.0 0.0 0.0 0.0 0.0 0.0 0.0 0.0 0.0 0.0 0.0 0.0 0.0 0.0 0.0 0.0 0.0 0.0 0.0 0.0 0.0 0.0 0.0 0.0 0.0 0.0
1.6 0.0 2.2 0.8 0.0 0.0 0.2 0.0 0.0 0.0 0.1 0.2 0.0 1.0 0.0 0.0 0.0 0.0 0.0 0.0 0.0 0.0 0.0 0.0 0.0 0.0 0.0 0.0 0.0 0.0 0.0 0.0 0.0 0.0 0.0 0.0 0.0 0.0 0.0 0.0 0.0 0.0 0.0 0.0
0.3 0.0 0.0 0.0 0.0 0.0 0.0 0.0 0.0 0.0 0.4 1.8 0.1 0.5 0.0 0.0 1.0 0.0 0.0 0.0 0.0 0.0 0.0 0.0 0.0 0.0 0.0 0.0 0.0 0.0 0.0 0.0 0.0 0.0 0.0 0.0 0.0 0.0 0.0 0.0 0.0 0.0 0.0 0.0
0.0 0.0 0.0 0.0 0.0 0.0 0.4 0.2 0.9 2.1 1.8 0.4 0.0 0.2 0.0 0.0 0.0 1.7 1.7 0.9 0.0 0.9 0.4 0.5 0.0 0.0 0.0 0.0 0.0 0.0 0.0 0.0 0.0 0.0 0.0 0.0 0.0 0.0 0.0 0.0 0.0 0.0 0.0 0.0
0.4 1.7 0.0 0.0 0.0 0.8 0.0 0.1 0.0 3.1 1.5 1.0 0.1 0.2 0.5 0.0 0.0 0.0 1.8 5.1 2.7 1.4 1.0 1.1 0.0 0.0 0.0 0.0 0.0 0.0 0.0 0.0 0.0 0.0 0.0 0.0 0.0 0.0 0.0 0.0 0.0 0.0 0.0 0.1
1.2 1.4 0.0 0.0 0.0 0.0 0.2 0.6 0.0 1.6 1.5 2.2 0.0 0.0 0.0 0.0 0.9 3.4 3.3 4.4 7.0 1.9 2.2 2.2 0.1 1.1 1.1 1.0 0.5 0.1 0.1 0.0 0.0 0.0 0.0 0.0 0.0 0.0 0.0 0.0 0.0 0.0 0.3 0.1
0.7 0.9 0.0 0.0 0.0 0.0 0.0 0.0 0.3 0.9 4.9 3.5 1.0 1.6 4.0 2.2 1.6 2.9 8.0 5.3 7.4 3.1 2.6 3.1 4.3 4.1 2.2 2.1 1.0 0.1 0.1 0.1 0.1 0.2 0.0 0.0 0.0 0.0 0.0 0.0 0.0 0.1 0.5 1.1
0.0 1.3 0.3 0.0 2.0 0.0 0.3 0.4 0.7 1.6 1.8 5.7 6.9 6.1 6.9 3.9 2.6 2.9 4.8 10.2 6.2 6.6 4.5 5.0 8.8 7.4 5.6 4.9 3.8 2.4 2.2 1.9 0.8 0.7 0.1 0.1 0.2 0.0 0.0 0.0 0.5 1.6 2.2 2.9
0.0 0.2 0.8 0.0 0.0 0.0 0.0 0.2 0.3 4.1 4.1 3.7 9.6 15.5 6.0 4.7 4.4 4.1 3.9 9.1 10.0 7.9 7.0 4.9 3.6 5.3 10.8 10.1 6.0 4.9 3.4 3.4 3.8 2.8 2.3 2.3 2.9 1.6 1.7 1.6 1.1 1.7 2.2 3.1
0.0 1.3 1.3 0.8 0.0 0.0 0.1 0.2 1.0 2.1 2.2 5.6 11.8 15.6 11.8 6.7 5.0 3.9 5.7 5.8 5.7 7.5 8.7 10.1 8.9 7.6 5.8 7.8 8.6 6.7 5.0 4.3 6.0 4.7 3.8 3.3 2.8 1.7 1.7 3.5 4.2 1.5 2.6 2.1
0.0 0.9 4.5 5.1 5.7 3.5 1.3 0.2 0.2 0.7 4.8 7.2 8.8 16.3 12.6 13.7 13.9 9.1 8.3 9.4 8.1 6.9 6.8 8.5 8.1 10.8 11.1 6.5 6.2 5.4 4.1 9.5 8.5 5.7 5.2 5.2 5.0 3.4 3.0 3.2 3.8 3.4 4.7 4.3
0.0 2.3 1.2 0.2 0.8 6.1 4.1 0.7 0.6 1.9 0.9 3.0 6.7 5.7 7.5 12.5 13.4 15.4 12.0 10.2 8.5 7.2 5.2 6.3 7.4 5.6 6.7 7.6 5.2 5.6 5.7 4.0 5.6 5.8 4.5 3.9 4.7 6.4 4.3 3.2 4.4 5.1 4.4 3.8
0.0 3.6 1.0 0.2 0.2 2.6 3.0 0.5 0.3 0.6 1.3 2.9 4.0 3.2 5.8 4.1 0.7 0.8 5.0 7.3 6.0 5.5 4.9 2.3 1.6 2.1 1.3 0.8 1.2 2.3 0.9 1.1 0.8 1.8 1.7 3.1 1.3 3.3 4.2 3.0 3.2 2.6 1.6 3.6
2.0 7.3 9.9 6.2 0.2 5.6 8.3 7.3 4.9 2.4 2.1 2.4 2.9 3.9 5.9 1.8 0.2 0.1 0.0 0.6 1.4 2.0 2.4 1.5 0.6 0.9 0.7 0.8 0.9 0.1 0.1 0.0 0.0 0.2 0.4 0.4 0.9 1.0 1.3 2.1 1.8 2.9 3.5 2.5
3.1 6.9 14.1 11.3 6.7 25.4 7.3 4.8 5.9 8.6 5.6 6.7 6.3 6.4 4.5 2.0 0.6 0.0 0.0 0.0 0.1 0.2 0.2 0.2 0.5 0.5 0.5 0.5 0.6 0.0 0.0 0.0 0.0 0.3 0.6 1.3 1.7 1.8 5.0 2.9 3.2 2.9 2.7 2.8
0.0 2.8 16.5 26.1 19.7 5.2 1.4 0.0 0.8 2.2 2.6 1.9 3.2 2.8 1.3 0.8 0.2 0.0 0.0 0.0 0.1 0.1 0.2 0.2 0.5 0.4 0.6 0.6 0.0 0.0 0.0 0.0 0.0 0.8 2.0 2.6 2.6 2.9 3.1 2.9 2.4 2.2 3.3 2.4
0.0 0.3 11.0 25.5 30.9 14.2 1.8 0.0 0.0 0.7 5.1 2.5 0.2 1.0 0.5 0.0 1.6 0.3 0.2 0.0 0.0 0.0 0.1 0.6 0.9 1.4 5.0 4.2 4.8 6.4 0.1 0.1 0.9 2.0 2.5 2.9 3.8 3.6 3.5 3.9 3.8 3.4 2.4 2.0
3.8 8.8 14.8 10.0 27.6 6.1 0.0 0.0 0.0 7.9 8.8 0.5 0.3 1.4 0.1 0.7 1.1 0.4 0.1 0.0 0.0 0.3 0.4 1.3 2.1 2.5 2.1 3.5 5.5 8.6 10.2 9.9 6.9 5.4 4.9 2.4 2.6 2.7 2.8 2.7 2.1 1.5 1.3 2.2
4.0 10.1 13.1 13.0 19.3 14.9 0.0 0.0 2.5 2.7 0.6 0.6 0.5 0.2 0.3 0.4 0.5 0.2 0.0 0.0 0.5 1.1 3.8 5.0 2.1 0.8 1.7 2.7 6.3 8.7 11.9 13.6 13.8 10.9 11.9 7.0 4.1 5.8 4.2 1.3 1.4 1.1 1.4 2.4
10.5 4.3 8.7 8.4 8.7 2.0 0.3 1.5 1.2 0.6 0.3 0.7 0.2 0.1 0.6 0.3 0.4 0.3 0.2 0.5 3.1 4.8 5.8 3.2 2.2 1.4 1.2 1.9 3.4 8.5 12.5 12.8 15.0 13.0 15.4 8.6 10.3 5.0 3.6 0.6 0.6 0.8 0.8 1.3
4.7 2.6 8.4 4.4 4.1 0.9 0.2 0.2 0.2 0.3 0.2 0.0 0.6 1.0 0.7 1.1 0.5 0.1 0.6 1.7 1.5 5.6 5.0 3.2 2.6 2.2 2.0 4.2 5.4 7.8 12.0 11.3 14.3 14.1 12.6 12.5 8.2 9.4 10.1 4.1 5.6 2.4 2.9 1.2
1.8 4.7 10.1 10.5 4.3 2.2 0.9 1.1 1.8 0.5 0.5 0.6 0.2 0.4 0.7 1.1 0.3 0.4 0.8 0.0 0.4 2.5 2.8 3.4 2.6 5.8 7.2 9.6 10.7 11.6 10.7 9.2 7.8 6.2 4.8 4.9 6.4 8.1 8.8 13.1 16.9 16.7 17.3 5.9
1.9 6.5 7.0 17.1 9.9 7.9 4.4 3.4 2.3 2.1 1.3 0.6 0.7 0.9 0.5 0.0 0.8 0.2 0.3 0.4 1.5 1.0 4.0 3.0 4.1 5.6 8.3 8.9 9.2 8.7 6.6 3.5 2.2 2.6 2.4 3.0 3.1 3.9 5.5 8.2 11.2 14.4 18.5 20.1